Location: Eastchurch
(51.4000°N, 0.8667°E)
Time: 17:07:15
(UTC+00:00)

SAR-Lupe-4 - Visible Passes

Search period start: 11 April 2026 00:00
Search period end: 21 April 2026 00:00
Orbit: 480 x 483 km, 98.1° (Epoch: 10 January)

Date Brightness Start Highest point End Pass type
(mag) Time Alt. Az. Time Alt. Az. Time Alt. Az.
13 Apr 6.6 19:34:50 10° SW 19:37:06 16° W 19:39:23 10° NW visible
16 Apr 6.8 19:48:49 10° WSW 19:50:17 12° W 19:51:44 10° WNW visible
20 Apr 6.5 19:33:47 10° SW 19:36:14 17° W 19:38:40 10° NW visible
